[Date Prev][Date Next][Thread Prev][Thread Next] - [Date Index][Thread Index][Author Index]
2 Line ISS Keps 8-27
- Subject: [sarex] 2 Line ISS Keps 8-27
- From: "Dr Dave Larsen PhD" <doc@xxxxxxxxxxx>
- Date: Fri, 26 Aug 2005 20:35:19 -0700
ISS
1 25544U 98067A 05238.85473380 .00026896 00000-0 20422-3 0 2263
2 25544 051.6447 259.1226 0001068 001.5267 000.5132 15.72122140386803
----
Via the sarex mailing list at AMSAT.ORG courtesy of AMSAT-NA.
To unsubscribe, send "unsubscribe sarex" to Majordomo@amsat.org
AMSAT Home